Weather History for Kalispell, MT

Change the Weather History Date:

Saturday, December 22, 2012

  Actual Average Record
Temperature  
Mean Temperature 34 °F 22 °F  
Max Temperature 36 °F 29 °F 55 °F (1933)
Min Temperature 31 °F 14 °F -12 °F (1990)
Degree Days  
Heating Degree Days 31 44  
Month to date heating degree days 757 918  
Since 1 July heating degree days 2737 3122  
Cooling Degree Days 0 0  
Month to date cooling degree days 0 0  
Year to date cooling degree days 192 147  
Moisture  
Dew Point 31 °F    
Average Humidity 91    
Maximum Humidity 100    
Minimum Humidity 82    
Precipitation  
Precipitation 0.05 in 0.06 in 0.41 in (1951)
Month to date precipitation 1.08 1.09  
Year to date precipitation 20.22 16.52  
Snow  
Snow 0.00 in - - ()
Month to date snowfall 4.1  
Year to date snowfall 31.5  
Since 1 July snowfall 6.4  
Snow Depth T in    
Sea Level Pressure  
Sea Level Pressure 29.80 in    
Wind  
Wind Speed 4 mph (North)    
Max Wind Speed 13 mph    
Max Gust Speed 16 mph    
Visibility 10 miles    
Events Rain , Snow    
T = Trace of Precipitation, MM = Missing Value Source: NWS Daily Summary

Daily Weather History Graph

Daily Weather History Graph

Search for Another Location

Airport:

Trip Planner

Search our weather history database for the weather conditions in past years. The results will help you decide how hot, cold, wet, or windy it might be!

Date:

Astronomy

Dec. 22, 2012 Rise Set
Actual Time 8:26 AM MST 4:45 PM MST
Civil Twilight 7:49 AM MST 5:22 PM MST
Nautical Twilight 7:09 AM MST 6:02 PM MST
Astronomical Twilight 6:31 AM MST 6:40 PM MST
Moon 1:18 PM MST (12/22) 3:00 AM MST (12/22)
Length of Visible Light 9h 33m
Length of Day
8h 19m
Waxing Gibbous, 74% of the Moon is Illuminated
Dec 22
Waxing Gibbous
Dec 28
Full
Jan 4
Last Quarter
Jan 11
New
Jan 18
First Quarter

Hourly Weather History & Observations

Time (MST) Temp. Windchill Dew Point Humidity Pressure Visibility Wind Dir Wind Speed Gust Speed Precip Events Conditions
12:55 AM 34.0 °F 28.0 °F 33.1 °F 96% 29.89 in 10.0 mi SSE 6.9 mph - 0.03 in Rain Light Rain
1:25 AM 35.6 °F 31.7 °F 33.8 °F 93% 29.82 in 10.0 mi South 4.6 mph - 0.00 in   Overcast
1:55 AM 35.1 °F 32.2 °F 33.1 °F 92% 29.88 in 10.0 mi Variable 3.5 mph - 0.00 in   Overcast
2:05 AM 35.6 °F 31.7 °F 32.0 °F 87% 29.82 in 10.0 mi Variable 4.6 mph - N/A   Overcast
2:23 AM 33.8 °F 29.6 °F 32.0 °F 93% 29.82 in 10.0 mi SSW 4.6 mph - N/A   Overcast
2:55 AM 34.0 °F 31.0 °F 32.0 °F 92% 29.89 in 10.0 mi West 3.5 mph - N/A   Overcast
3:55 AM 33.1 °F - 32.0 °F 96% 29.90 in 10.0 mi Calm Calm - N/A   Overcast
4:55 AM 33.1 °F 30.0 °F 32.0 °F 96% 29.89 in 10.0 mi North 3.5 mph - N/A   Overcast
5:55 AM 32.0 °F 28.7 °F 30.9 °F 96% 29.88 in 8.0 mi NNE 3.5 mph - N/A   Overcast
6:55 AM 30.9 °F - 30.9 °F 100% 29.88 in 9.0 mi Calm Calm - N/A   Overcast
7:55 AM 32.0 °F 25.6 °F 30.0 °F 92% 29.87 in 10.0 mi NNE 6.9 mph - N/A   Overcast
8:55 AM 32.0 °F 28.7 °F 30.0 °F 92% 29.86 in 10.0 mi NNW 3.5 mph - N/A   Overcast
9:55 AM 32.0 °F 27.5 °F 28.9 °F 88% 29.86 in 10.0 mi North 4.6 mph - N/A   Overcast
10:55 AM 33.1 °F - 28.9 °F 85% 29.84 in 10.0 mi Calm Calm - N/A   Overcast
11:55 AM 35.1 °F 32.2 °F 30.9 °F 85% 29.80 in 10.0 mi NW 3.5 mph - N/A   Scattered Clouds
12:55 PM 36.0 °F 33.3 °F 32.0 °F 86% 29.77 in 10.0 mi NNE 3.5 mph - N/A   Overcast
1:55 PM 35.1 °F 29.3 °F 30.0 °F 82% 29.72 in 10.0 mi North 6.9 mph - N/A   Overcast
2:55 PM 35.1 °F 30.1 °F 30.9 °F 85% 29.71 in 10.0 mi NE 5.8 mph - N/A   Overcast
3:55 PM 34.0 °F 28.8 °F 28.9 °F 82% 29.70 in 10.0 mi NNW 5.8 mph - N/A   Overcast
4:55 PM 34.0 °F 31.0 °F 32.0 °F 92% 29.69 in 10.0 mi NNW 3.5 mph - N/A   Overcast
5:55 PM 35.1 °F - 30.0 °F 82% 29.71 in 10.0 mi Calm Calm - N/A   Overcast
6:55 PM 34.0 °F 26.0 °F 30.0 °F 85% 29.71 in 10.0 mi NE 10.4 mph - 0.00 in Rain Light Rain
7:55 PM 34.0 °F 29.8 °F 30.9 °F 89% 29.71 in 10.0 mi NE 4.6 mph - 0.00 in   Overcast
8:55 PM 33.1 °F 26.9 °F 30.9 °F 92% 29.72 in 10.0 mi NNE 6.9 mph - 0.01 in Snow Light Snow
9:55 PM 33.1 °F 27.7 °F 32.0 °F 96% 29.74 in 7.0 mi South 5.8 mph - 0.00 in Snow Light Snow
10:55 PM 33.1 °F 27.7 °F 32.0 °F 96% 29.76 in 10.0 mi South 5.8 mph - 0.01 in   Overcast
11:55 PM 34.0 °F 27.2 °F 32.0 °F 92% 29.79 in 10.0 mi South 8.1 mph - N/A   Overcast